Regional Weather Roundup
Issued by NWS Albany, NY

Home | Current Version | Previous Version | Text Only | Print | Product List | Glossary On
Versions: 1 2 3 4 5 6 7 8 9 10 11 12 13 14 15 16 17 18 19 20 21 22 23 24 25 26 27 28
000
ASUS41 KALY 202110
RWRALY

NEW YORK STATE HOURLY WEATHER ROUNDUP
NATIONAL WEATHER SERVICE ALBANY NY
400 PM EST FRI JAN 20 2017

NOTE: "FAIR" INDICATES FEW OR NO CLOUDS BELOW 12,000 FEET WITH NO
SIGNIFICANT WEATHER AND/OR NO OBSTRUCTIONS TO VISIBILITY.

NYZ032-033-038>043-046>054-057>066-NYZ062>081-082-084-202200-
EAST


CITY           SKY/WX    TMP DP  RH WIND       PRES   REMARKS
ALBANY         CLOUDY    40  31  70 S3        29.91F
GLENS FALLS    NOT AVBL
POUGHKEEPSIE   CLOUDY    42  32  67 VRB5      29.91S
NEWBURGH       CLOUDY    41  34  75 SE6       29.92S
MONTGOMERY     CLOUDY    42  33  70 S5        29.89S
WHITE PLAINS   MOCLDY    41  32  70 SE6       29.92S
ISLIP          CLOUDY    42  34  73 SE6       29.95R
NEW YORK CITY  LGT RAIN  45  35  68 S6        29.94R
CENTRAL PARK   LGT RAIN  42  38  85 S5        29.95S
$$

NYZ005>009-017-018-044>046-055-056-202200-
CENTRAL


CITY           SKY/WX    TMP DP  RH WIND       PRES   REMARKS
FULTON         MOCLDY    41  34  76 SE5       29.78S
SYRACUSE       CLOUDY    42  36  79 E8        29.78F
ROME           CLOUDY    37  33  85 E8        29.84F WCI  31
ELMIRA         LGT RAIN  42  37  82 CALM      29.77S
BINGHAMTON     CLOUDY    36  34  92 S10       29.78S WCI  28
MONTICELLO     CLOUDY    36  32  87 SE5       29.87S WCI  32
$$

NYZ026>034-041>043-087-202200-
NORTH


CITY           SKY/WX    TMP DP  RH WIND       PRES   REMARKS
WATERTOWN      CLOUDY    41  35  79 SE5       29.80F
FORT DRUM      NOT AVBL
OGDENSBURG     MOCLDY    39  33  78 NE5       29.84S
MASSENA        CLOUDY    36  30  79 NE6       29.86F WCI  31
SARANAC LAKE   MOCLDY    34  30  85 CALM      29.78F
PLATTSBURGH    CLOUDY    37  29  72 SE13      29.87F WCI  29
$$

NYZ001>004-010>016-019>021-085-202200-
WEST


CITY           SKY/WX    TMP DP  RH WIND       PRES   REMARKS
NIAGARA FALLS  LGT RAIN  43  38  82 E5        29.71S
BUFFALO        LGT RAIN  42  40  92 NE5       29.71R FOG
DUNKIRK        LGT RAIN  46  43  89 S13G18    29.70S
JAMESTOWN      CLOUDY    41  39  93 S9        29.70R
WELLSVILLE     LGT RAIN  41  37  86 S5        29.74R
ROCHESTER      CLOUDY    46  39  76 SE3       29.74R
PENN YAN       CLOUDY    43  35  73 S8        29.75S
$$

             KEY
       WCI = WIND CHILL INDEX
       VSB = VISIBILITY
       HX  = HEAT INDEX
$$




USA.gov is the U.S. government's official web portal to all federal, state and local government web resources and services.